Location: Newark
(34.9500°N, 139.9667°E)
Time: 14:17:57
(UTC+00:00)

Vanguard 2 Rocket - Pass Details

Date: 09 December 2019
Orbit: 554 x 3326 km, 32.9° (Epoch: 25 January)

Event Time Altitude Azimuth Distance (km) Brightness Sun altitude
Rises 15:15:13 0° 269° (W) 3,282 - -74.7°
Reaches altitude 10° 15:19:32 10° 236° (WSW) 2,005 - -74.1°
Maximum altitude 15:21:02 12° 216° (SW) 1,825 - -73.9°
Drops below altitude 10° 15:22:26 10° 195° (SSW) 1,863 - -73.7°
Sets 15:26:00 0° 159° (SSE) 2,708 - -73.2°
